| time (UTC) | temp F | wind direction | speed MPH | gust MPH | rain 1hr in | rain 24hr in | rain mn in | humidity % | barometer mb |
| 20260504034728 | 47 | 292 | 0.0 | 0.0 | 0.00 | 0.00 | 0.00 | 47 | 1020.7 |
| 20260504032728 | 47 | 315 | 0.0 | 1.0 | 0.00 | 0.00 | 0.00 | 46 | 1020.8 |
| 20260504030729 | 47 | 281 | 1.0 | 2.0 | 0.00 | 0.00 | 0.00 | 45 | 1020.8 |
| 20260504024745 | 47 | 180 | 0.0 | 0.0 | 0.00 | 0.00 | 0.00 | 45 | 1020.9 |
| 20260504023843 | 47 | 180 | 0.0 | 0.0 | 0.00 | 0.00 | 0.00 | 44 | 1020.9 |
| 20260504022929 | 48 | 180 | 0.0 | 0.0 | 0.00 | 0.00 | 0.00 | 44 | 1020.9 |
| 20260504021928 | 48 | 180 | 0.0 | 0.0 | 0.00 | 0.00 | 0.00 | 45 | 1020.8 |
| 20260504020929 | 49 | 180 | 0.0 | 0.0 | 0.00 | 0.00 | 0.00 | 45 | 1020.6 |
| 20260504015028 | 50 | 180 | 0.0 | 0.0 | 0.00 | 0.00 | 0.00 | 44 | 1020.4 |
| 20260504014027 | 51 | 180 | 0.0 | 0.0 | 0.00 | 0.00 | 0.00 | 44 | 1020.4 |
| 20260504013028 | 51 | 180 | 0.0 | 0.0 | 0.00 | 0.00 | 0.00 | 43 | 1020.3 |
| 20260504012028 | 52 | 180 | 0.0 | 0.0 | 0.00 | 0.00 | 0.00 | 44 | 1020.3 |
| 20260504011127 | 53 | 180 | 0.0 | 0.0 | 0.00 | 0.00 | 0.00 | 44 | 1020.3 |
| 20260504010127 | 53 | 180 | 0.0 | 0.0 | 0.00 | 0.00 | 0.00 | 44 | 1020.0 |
| 20260504010028 | 53 | 180 | 0.0 | 0.0 | 0.00 | 0.00 | 0.00 | 44 | 1020.0 |
| 20260504005046 | 54 | 180 | 0.0 | 0.0 | 0.00 | 0.00 | 0.00 | 43 | 1020.0 |
| 20260504004029 | 55 | 180 | 0.0 | 0.0 | 0.00 | 0.00 | 0.00 | 44 | 1019.9 |
| 20260504002027 | 56 | 180 | 0.0 | 0.0 | 0.00 | 0.00 | 0.00 | 44 | 1019.7 |
| 20260504001028 | 56 | 180 | 0.0 | 0.0 | 0.00 | 0.00 | 0.00 | 44 | 1019.7 |
| 20260504000029 | 57 | 180 | 0.0 | 0.0 | 0.00 | 0.00 | 0.00 | 44 | 1019.6 |
| 20260503235027 | 57 | 180 | 0.0 | 0.0 | 0.00 | 0.00 | 0.00 | 44 | 1019.6 |
| 20260503234027 | 58 | 180 | 0.0 | 0.0 | 0.00 | 0.00 | 0.00 | 44 | 1019.7 |
| 20260503233027 | 58 | 180 | 0.0 | 0.0 | 0.00 | 0.00 | 0.00 | 44 | 1019.6 |
| 20260503232026 | 59 | 180 | 0.0 | 0.0 | 0.00 | 0.00 | 0.00 | 45 | 1019.6 |
| 20260503231045 | 59 | 22 | 0.0 | 1.0 | 0.00 | 0.00 | 0.00 | 44 | 1019.5 |
| 20260503225128 | 60 | 180 | 0.0 | 1.0 | 0.00 | 0.00 | 0.00 | 44 | 1019.6 |
| 20260503224127 | 60 | 315 | 0.0 | 0.0 | 0.00 | 0.00 | 0.00 | 45 | 1019.5 |
| 20260503223127 | 61 | 360 | 0.0 | 0.0 | 0.00 | 0.00 | 0.00 | 45 | 1019.5 |
| 20260503222128 | 61 | 22 | 0.0 | 1.0 | 0.00 | 0.00 | 0.00 | 46 | 1019.5 |
| 20260503221128 | 62 | 126 | 1.0 | 4.0 | 0.00 | 0.00 | 0.00 | 45 | 1019.4 |
| 20260503220128 | 63 | 22 | 0.0 | 1.0 | 0.00 | 0.00 | 0.00 | 46 | 1019.6 |
| 20260503213127 | 65 | 180 | 0.0 | 0.0 | 0.00 | 0.00 | 0.00 | 47 | 1019.6 |
| 20260503212127 | 66 | 97 | 0.0 | 2.0 | 0.00 | 0.00 | 0.00 | 48 | 1019.7 |
| 20260503211128 | 68 | 15 | 1.0 | 3.0 | 0.00 | 0.00 | 0.00 | 49 | 1019.8 |
| 20260503205128 | 71 | 75 | 2.0 | 5.0 | 0.00 | 0.00 | 0.00 | 50 | 1019.9 |
| 20260503204127 | 72 | 146 | 1.0 | 4.0 | 0.00 | 0.00 | 0.00 | 51 | 1020.1 |
| 20260503202128 | 71 | 80 | 1.0 | 3.0 | 0.00 | 0.00 | 0.00 | 53 | 1020.3 |
| 20260503201226 | 71 | 178 | 1.0 | 3.0 | 0.00 | 0.00 | 0.00 | 54 | 1020.4 |
| 20260503200229 | 71 | 102 | 2.0 | 5.0 | 0.00 | 0.00 | 0.00 | 55 | 1020.6 |
| 20260503194327 | 71 | 161 | 0.0 | 1.0 | 0.00 | 0.00 | 0.00 | 57 | 1021.0 |
| 20260503194228 | 71 | 22 | 0.0 | 1.0 | 0.00 | 0.00 | 0.00 | 57 | 1020.9 |
| 20260503192230 | 70 | 166 | 0.0 | 0.0 | 0.00 | 0.00 | 0.00 | 58 | 1021.2 |
| 20260503191327 | 69 | 115 | 0.0 | 1.0 | 0.00 | 0.00 | 0.00 | 59 | 1021.2 |
| 20260503191227 | 69 | 157 | 0.0 | 2.0 | 0.00 | 0.00 | 0.00 | 59 | 1021.3 |
| 20260503185228 | 66 | 159 | 2.0 | 7.0 | 0.00 | 0.00 | 0.00 | 60 | 1021.6 |
| 20260503183228 | 65 | 82 | 1.0 | 3.0 | 0.00 | 0.00 | 0.00 | 61 | 1021.7 |
| 20260503182227 | 65 | 163 | 1.0 | 3.0 | 0.00 | 0.00 | 0.00 | 63 | 1021.8 |
| 20260503181326 | 65 | 148 | 0.0 | 1.0 | 0.00 | 0.00 | 0.00 | 64 | 1022.1 |
| 20260503180328 | 65 | 160 | 0.0 | 3.0 | 0.00 | 0.00 | 0.00 | 65 | 1021.9 |
| 20260503175329 | 64 | 138 | 3.0 | 5.0 | 0.00 | 0.00 | 0.00 | 65 | 1022.0 |
| 20260503173328 | 64 | 155 | 2.0 | 4.0 | 0.00 | 0.00 | 0.00 | 67 | 1022.3 |
| 20260503172327 | 62 | 116 | 1.0 | 3.0 | 0.00 | 0.00 | 0.00 | 68 | 1022.5 |
| 20260503171426 | 62 | 180 | 3.0 | 4.0 | 0.00 | 0.00 | 0.00 | 68 | 1022.5 |
| 20260503170526 | 62 | 132 | 2.0 | 4.0 | 0.00 | 0.00 | 0.00 | 69 | 1022.7 |
| 20260503130925 | 47 | 112 | 0.0 | 2.0 | 0.00 | 0.00 | 0.00 | 75 | 1023.4 |
| 20260503110127 | 35 | 315 | 0.0 | 0.0 | 0.00 | 0.00 | 0.00 | 68 | 1021.2 |
| 20260503100226 | 36 | 270 | 0.0 | 0.0 | 0.00 | 0.00 | 0.00 | 65 | 1020.6 |
| 20260503090425 | 37 | 270 | 0.0 | 0.0 | 0.00 | 0.00 | 0.00 | 62 | 1020.2 |
| 20260503081526 | 38 | 270 | 0.0 | 0.0 | 0.00 | 0.00 | 0.00 | 60 | 1020.0 |
| 20260503080527 | 38 | 270 | 0.0 | 0.0 | 0.00 | 0.00 | 0.00 | 59 | 1019.8 |
| 20260503072626 | 39 | 270 | 0.0 | 0.0 | 0.00 | 0.00 | 0.00 | 58 | 1019.7 |
| 20260503071626 | 39 | 270 | 0.0 | 0.0 | 0.00 | 0.00 | 0.00 | 57 | 1019.6 |
| 20260503054826 | 41 | 270 | 0.0 | 0.0 | 0.00 | 0.00 | 0.00 | 54 | 1019.4 |
| 20260503052926 | 42 | 270 | 0.0 | 0.0 | 0.00 | 0.00 | 0.00 | 53 | 1019.4 |
| 20260503051927 | 42 | 270 | 0.0 | 0.0 | 0.00 | 0.00 | 0.00 | 53 | 1019.5 |
| 20260503050125 | 43 | 270 | 0.0 | 0.0 | 0.00 | 0.00 | 0.00 | 51 | 1019.6 |
| 20260503045126 | 43 | 270 | 0.0 | 0.0 | 0.00 | 0.00 | 0.00 | 52 | 1019.6 |
| 20260503044126 | 44 | 270 | 0.0 | 0.0 | 0.00 | 0.00 | 0.00 | 52 | 1019.5 |
| 20260503043125 | 44 | 270 | 0.0 | 0.0 | 0.00 | 0.00 | 0.00 | 52 | 1019.6 |
| 20260503042127 | 44 | 270 | 0.0 | 0.0 | 0.00 | 0.00 | 0.00 | 51 | 1019.7 |
| 20260503041226 | 44 | 270 | 0.0 | 0.0 | 0.00 | 0.00 | 0.00 | 51 | 1019.5 |
| 20260503040325 | 45 | 270 | 0.0 | 0.0 | 0.00 | 0.00 | 0.00 | 50 | 1019.4 |